#timestamp,LO_Frequency,Hit,StdDev 
1691085615.3,286047000.1,N
1691085635.1,286047002.7,N
1691085655.8,286047005.3,Y
1691085675.7,286047000.7,P
1691085695.5,286046998.5,P
1691085715.3,286046996.8,N
1691085735.2,286046996.9,N
1691085755.9,286046996.6,N
1691085775.7,286046998.9,N
1691085795.6,286047001.2,N
1691085815.4,286046999.9,N
1691085835.2,286047000.2,N
1691085855.1,286047000.4,N
1691085856.0,286047000.4,N
1691085875.8,286047000.6,N
1691085895.6,286046999.8,N
1691085915.5,286046999.9,N
1691085935.3,286047000.5,N
1691085955.1,286046999.7,N
1691085975.9,286047000.1,N
1691085995.7,286047000.5,N
1691086015.5,286046998.4,N
1691086035.4,286047000.6,N
1691086055.2,286047000.0,N
1691086075.0,286047000.6,N
1691086075.9,286047000.6,N
1691086095.8,286047000.7,N
1691086115.6,286046999.5,N
1691086135.4,286047000.8,N
1691086155.3,286046998.4,N
1691086175.1,286047000.7,N
1691086176.0,286047000.7,N
1691086195.8,286047000.5,N
1691086215.7,286047000.5,N
1691086235.5,286046998.5,N
1691086255.3,286047002.3,N
1691086275.2,286047001.2,N
1691086295.9,286047001.0,N
1691086315.7,286047000.3,N
1691086335.6,286047005.9,Y
1691086355.4,286047000.7,P
1691086375.2,286046997.7,P
1691086395.1,286046996.9,N
1691086396.0,286046996.9,N
1691086415.8,286046995.1,N
1691086435.6,286046997.0,N
1691086455.5,286046996.7,N
1691086475.3,286046997.3,N
1691086495.1,286046997.6,N
1691086515.9,286046997.9,N
1691086535.7,286046996.7,N
1691086555.5,286046995.6,N
1691086575.4,286046997.6,N
1691086595.2,286046997.7,N
1691086615.0,286046996.9,N
1691086615.9,286046996.9,N
1691086635.8,286047001.2,N
1691086655.6,286046999.5,N
1691086675.4,286046999.5,N
1691086695.3,286047000.2,N
1691086715.1,286046998.1,N
1691086716.0,286046998.1,N
1691086735.8,286046999.0,N
1691086755.7,286046996.5,N
1691086775.5,286046997.3,N
1691086795.3,286046996.7,N
1691086815.2,286046999.3,N
1691086835.9,286046998.0,N
1691086855.7,286046997.4,N
1691086875.6,286046997.0,N
1691086895.4,286047001.2,N
1691086915.2,286046999.3,N
1691086935.1,286047000.4,N
1691086936.0,286047000.4,N
1691086955.8,286046998.3,N
1691086975.6,286046999.5,N
1691086995.5,286047001.0,N
1691087015.3,286046999.2,N
1691087035.1,286046996.7,N
1691087055.9,286046998.9,N
1691087075.7,286046997.1,N
1691087095.5,286046995.2,Y
1691087115.4,286047000.6,P
1691087135.2,286046996.8,P
1691087155.0,286046999.4,N
1691087155.9,286046999.4,N
1691087175.8,286046999.9,N
1691087195.6,286046998.4,N
1691087215.4,286046997.0,N
1691087235.3,286046999.2,N
1691087255.1,286046998.9,N
1691087256.0,286046998.9,N
1691087275.8,286046999.2,N
1691087295.7,286046999.1,N
1691087315.5,286046998.7,N
1691087335.3,286046998.2,N
1691087355.2,286046999.6,N
1691087375.9,286046997.1,Y
1691087395.7,286046998.9,P
1691087415.6,286046992.9,P
1691087435.4,286047013.7,P
1691087455.2,286047001.4,N
1691087475.1,286046996.7,N
1691087476.0,286046996.7,N
1691087495.8,286046993.7,N
1691087515.6,286046994.4,N
1691087535.5,286046994.8,N
1691087555.3,286046992.1,N
1691087575.1,286046991.7,N
1691087595.9,286046994.7,N
1691087615.7,286046991.7,N
1691087635.5,286046992.7,N
1691087655.4,286046990.4,N
1691087675.2,286046993.1,N
1691087695.0,286046993.2,N
1691087695.9,286046993.2,N
1691087715.8,286046990.4,N
1691087735.6,286046991.4,N
1691087755.4,286046991.4,N
1691087775.3,286046990.9,N
1691087795.1,286046991.4,N
1691087796.0,286046991.4,N
1691087815.8,286046990.2,N
1691087835.7,286046990.9,N
1691087855.5,286046990.2,N
1691087875.3,286046990.5,N
1691087895.2,286046990.5,N
1691087915.9,286046990.4,N
1691087935.7,286046990.4,N
1691087955.6,286046991.0,N
1691087975.4,286046991.3,N
1691087995.2,286046990.9,Y
1691088015.1,286046996.7,P
1691088016.0,286046996.7,N
1691088035.8,286046996.9,N
1691088055.6,286046999.4,N
1691088075.5,286046998.3,N
1691088095.3,286046998.9,N
1691088115.1,286046999.2,N
1691088135.9,286046999.4,N
1691088155.7,286046999.1,N
1691088175.5,286046998.5,N
1691088195.4,286046998.4,N
1691088215.2,286046998.2,N
1691088235.0,286046998.1,N
1691088235.9,286046998.1,N
1691088255.8,286046998.1,N
1691088275.6,286046998.7,N
1691088295.4,286046998.1,N
1691088315.3,286046998.2,N
1691088335.1,286047000.7,N
1691088336.0,286047000.7,N
1691088355.8,286047000.4,N
1691088375.7,286046998.2,N
1691088395.5,286047000.6,N
1691088415.3,286047000.4,N
1691088435.2,286047000.0,N
1691088455.9,286047000.9,N
1691088475.7,286047002.3,N
1691088495.6,286047002.5,N
1691088515.4,286046999.7,N
1691088535.2,286047002.7,N
1691088555.1,286047002.3,N
1691088556.0,286047002.3,N
1691088575.8,286047002.1,N
1691088595.6,286047000.1,N
1691088615.5,286047002.7,N
1691088635.3,286047002.6,N
1691088655.1,286047001.6,N
1691088675.9,286047002.6,N
1691088695.7,286047002.6,N
1691088715.5,286047002.1,N
1691088735.4,286046999.7,N
1691088755.2,286047002.8,N
1691088775.0,286047004.4,N
1691088775.9,286047004.4,N
1691088795.8,286047001.7,N
1691088815.6,286047002.5,N
1691088835.4,286047004.3,N
1691088855.3,286047002.5,N
1691088875.1,286047001.3,N
1691088876.0,286047001.3,N
1691088895.8,286047004.2,N
1691088915.7,286047005.7,Y
1691088935.5,286047002.8,P
1691088955.3,286047002.0,P
1691088975.2,286047001.6,P
1691088995.9,286047004.4,Y
1691089015.7,286047002.3,P
1691089035.6,286047002.3,P
1691089055.4,286047000.3,N
1691089075.2,286047000.2,N
1691089095.1,286047000.0,N
1691089096.0,286047000.0,N
1691089115.8,286047000.3,N
1691089135.6,286047000.2,N
1691089155.5,286047000.3,N
1691089175.3,286046999.9,N
1691089195.1,286047002.3,N
